EW4365 Weather Reports


time (UTC)temp
C
wind
direction
speed
KPH
gust
KPH
rain 1hr
cm
rain 24hr
cm
rain mn
cm
humidity
%
barometer
mb
20260903024517 26 261 0.0 4.8 0.00 0.00 0.00 82 1014.1
20260903023016 26 261 1.6 4.8 0.00 0.00 0.00 81 1014.1
20260903021519 26 298 1.6 4.8 0.00 0.00 0.00 83 1014.1
20260903020015 26 298 0.0 4.8 0.00 0.00 0.00 83 1014.1
20260903014514 26 298 1.6 4.8 0.00 0.00 0.00 83 1014.0
20260903013014 26 298 0.0 3.2 0.00 0.00 0.00 83 1014.0
20260903011514 26 298 0.0 3.2 0.00 0.00 0.00 82 1014.0
20260903010013 26 298 0.0 3.2 0.00 0.00 0.00 82 1013.9
20260903004517 26 298 0.0 3.2 0.00 0.00 0.00 81 1013.8
20260903003012 26 298 0.0 3.2 0.00 0.00 0.00 81 1013.6
20260903001515 27 298 0.0 3.2 0.00 0.00 0.00 79 1013.6
20260903000010 28 298 0.0 1.6 0.00 0.00 0.00 76 1013.6
20260902234514 28 298 1.6 3.2 0.00 0.00 0.00 73 1013.5
20260902233009 29 298 0.0 1.6 0.00 0.00 0.00 70 1013.5
20260902231516 30 298 0.0 4.8 0.00 0.00 0.00 66 1013.5
20260902230008 31 338 1.6 3.2 0.00 0.00 0.00 65 1013.4
20260902224508 31 338 0.0 3.2 0.00 0.00 0.00 62 1013.4
20260902223006 32 339 0.0 4.8 0.00 0.00 0.00 60 1013.6
20260902221505 32 270 1.6 11.3 0.00 0.00 0.00 59 1013.6
20260902220006 32 355 0.0 4.8 0.00 0.00 0.00 60 1013.5
20260902214504 32 255 1.6 8.0 0.00 0.00 0.00 58 1013.6
20260902213003 33 280 1.6 6.4 0.00 0.00 0.00 59 1013.7
20260902211502 33 269 1.6 12.9 0.00 0.00 0.00 59 1013.6
20260902210002 33 117 3.2 9.7 0.00 0.00 0.00 60 1013.7
20260902204601 32 266 3.2 12.9 0.00 0.00 0.00 59 1013.8
20260902203058 32 229 0.0 8.0 0.00 0.00 0.00 64 1014.0
20260902201556 33 231 3.2 8.0 0.00 0.00 0.00 57 1014.2
20260902200054 32 172 1.6 4.8 0.00 0.00 0.00 62 1014.4
20260902194553 32 229 3.2 6.4 0.00 0.00 0.00 61 1014.5
20260902193052 33 229 4.8 9.7 0.00 0.00 0.00 55 1014.6
20260902191553 33 340 1.6 6.4 0.00 0.00 0.00 59 1014.7
20260902190054 33 331 3.2 8.0 0.00 0.00 0.00 58 1014.9
20260902184558 33 343 3.2 11.3 0.00 0.10 0.00 56 1015.0
20260902183044 33 343 1.6 8.0 0.00 0.10 0.00 59 1015.1
20260902181544 33 232 3.2 9.7 0.00 0.10 0.00 59 1015.3
20260902180044 32 305 1.6 6.4 0.00 0.10 0.00 60 1015.5
20260902174539 32 350 4.8 12.9 0.00 0.18 0.00 60 1015.6
20260902173040 32 344 1.6 9.7 0.00 0.18 0.00 63 1015.9
20260902171536 32 347 4.8 12.9 0.00 0.18 0.00 62 1016.0
20260902170034 32 270 3.2 9.7 0.00 0.18 0.00 64 1016.1
20260902164534 31 350 1.6 6.4 0.00 0.18 0.00 63 1016.2
20260902163030 31 342 3.2 8.0 0.00 0.18 0.00 65 1016.2
20260902161527 31 338 1.6 8.0 0.00 0.18 0.00 67 1016.3
20260902160025 31 341 0.0 11.3 0.00 0.18 0.00 70 1016.2
20260902154521 30 250 1.6 8.0 0.00 0.25 0.00 71 1016.3
20260902153023 30 246 0.0 8.0 0.00 0.25 0.00 75 1016.4
20260902151516 30 227 0.0 8.0 0.00 0.25 0.00 74 1016.5
20260902150014 29 300 1.6 6.4 0.00 0.25 0.00 73 1016.4
20260902144519 28 302 1.6 6.4 0.00 0.25 0.00 76 1016.3
20260902143006 28 323 1.6 6.4 0.00 0.25 0.00 77 1016.3
20260902141503 27 306 0.0 4.8 0.00 0.25 0.00 78 1016.3
20260902140104 27 284 0.0 11.3 0.00 0.25 0.00 80 1016.2
20260902134605 26 307 1.6 4.8 0.00 0.25 0.00 84 1016.3
20260902133055 25 313 0.0 6.4 0.00 0.25 0.00 87 1016.2
20260902131550 24 224 0.0 6.4 0.00 0.25 0.00 89 1016.2
20260902130051 23 223 1.6 8.0 0.00 0.25 0.00 90 1016.2
20260902124550 23 184 0.0 3.2 0.00 0.25 0.00 92 1016.1
20260902123046 22 184 0.0 1.6 0.00 0.25 0.00 92 1016.1
20260902121547 22 184 0.0 3.2 0.00 0.25 0.00 93 1016.1
20260902120045 22 184 0.0 3.2 0.00 0.25 0.00 95 1016.1
20260902114545 21 184 0.0 1.6 0.00 0.25 0.00 95 1015.9
20260902113041 21 184 0.0 1.6 0.00 0.25 0.00 95 1015.9
20260902111540 21 184 0.0 3.2 0.00 0.25 0.00 94 1015.8
20260902110039 21 184 0.0 3.2 0.00 0.25 0.00 93 1015.8
20260902104538 21 184 0.0 3.2 0.00 0.25 0.00 94 1015.7
20260902103039 21 184 0.0 3.2 0.00 0.25 0.00 94 1015.6
20260902101536 21 184 1.6 3.2 0.00 0.25 0.00 93 1015.6
20260902100044 22 184 0.0 3.2 0.00 0.25 0.00 93 1015.6
20260902094535 22 185 0.0 4.8 0.00 0.25 0.00 93 1015.5
20260902093034 22 187 0.0 3.2 0.00 0.25 0.00 94 1015.5
20260902091557 22 188 1.6 6.4 0.00 0.25 0.00 94 1015.6
20260902090034 22 187 1.6 3.2 0.00 0.25 0.00 94 1015.6
20260902084539 22 186 0.0 3.2 0.00 0.25 0.00 94 1015.5
20260902083030 22 186 0.0 3.2 0.00 0.25 0.00 94 1015.4
20260902081533 22 186 0.0 3.2 0.00 0.25 0.00 95 1015.2
20260902080036 21 186 1.6 3.2 0.00 0.25 0.00 95 1015.2
20260902074530 21 186 0.0 0.0 0.00 0.25 0.00 94 1015.2
20260902073025 21 186 0.0 1.6 0.00 0.25 0.00 93 1015.1
20260902071546 22 186 0.0 3.2 0.00 0.25 0.00 92 1015.1
20260902070022 22 186 0.0 1.6 0.00 0.25 0.00 92 1015.2
20260902064519 22 186 0.0 1.6 0.00 0.25 0.00 91 1015.2
20260902063025 23 186 0.0 0.0 0.00 0.25 0.00 91 1015.1
20260902061514 23 186 0.0 0.0 0.00 0.25 0.00 90 1015.2
20260902060021 23 186 0.0 1.6 0.00 0.25 0.00 89 1015.2
20260902054522 23 186 0.0 3.2 0.00 0.25 0.00 89 1015.0
20260902053009 23 186 0.0 6.4 0.00 0.25 0.00 89 1014.9
20260902051509 23 194 0.0 3.2 0.00 0.25 0.00 90 1014.9
20260902050009 23 194 0.0 4.8 0.00 0.25 0.00 91 1014.8
20260902044514 23 194 0.0 1.6 0.00 0.25 0.00 90 1014.7
20260902043004 24 194 0.0 3.2 0.00 0.25 0.00 89 1014.7
20260902041503 24 194 0.0 1.6 0.00 0.25 0.00 88 1014.8
20260902040100 25 194 0.0 1.6 0.00 0.25 0.00 87 1014.8
20260902034558 25 194 0.0 3.2 0.00 0.25 0.25 86 1014.7
20260902033058 25 194 0.0 4.8 0.00 0.25 0.25 86 1014.6
20260902031557 25 193 0.0 6.4 0.00 0.25 0.25 86 1014.7
20260902030056 25 184 0.0 4.8 0.00 0.25 0.25 85 1014.8